Regional Weather Roundup
Issued by NWS Sioux Falls, SD

Home | Current Version | Previous Version | Text Only | Print | Product List | Glossary Off
Versions: 1 2 3 4 5 6 7 8 9 10 11 12 13 14 15 16 17 18 19 20 21 22 23 24 25 26 27 28 29 30 31 32 33 34 35 36 37 38 39 40 41 42 43 44 45 46 47 48 49 50

000
ASUS43 KFSD 031010
RWRFSD

WEATHER ROUNDUP FOR SE SOUTH DAKOTA/SW MINNESOTA/NW IOWA
NATIONAL WEATHER SERVICE SIOUX FALLS SD
500 AM CDT MON AUG 03 2015

NOTE: "FAIR" INDICATES FEW OR NO CLOUDS BELOW 12,000 FEET WITH NO
SIGNIFICANT WEATHER AND OR OBSTRUCTIONS TO VISIBILITY.


SDZ038>040-050-052>070-031100-
SOUTHEAST SOUTH DAKOTA

CITY           SKY/WX    TMP DP  RH WIND       PRES   REMARKS
BROOKINGS      CLEAR     54  52  94 CALM      29.98R
CHAMBERLAIN    CLEAR     60  57  91 CALM      29.97S
HURON          CLEAR     58  57  97 CALM      29.95S
MADISON        FAIR      57  57 100 N3        29.97R
MITCHELL       CLEAR     60  58  92 NW3       29.97R
SIOUX FALLS    CLEAR     59  56  89 CALM      29.96R
WINNER         FAIR      63  55  75 S9        29.99R
YANKTON        CLEAR     59  55  88 CALM      29.95S
$$

MNZ071-072-080-081-089-090-097-098-031100-
SOUTHWEST MINNESOTA

CITY           SKY/WX    TMP DP  RH WIND       PRES   REMARKS
FAIRMONT       CLEAR     57  48  72 N5        29.92R
JACKSON        CLEAR     54  52  94 CALM      29.94S
LUVERNE        CLEAR     55  54  94 CALM      29.96R
MARSHALL       CLEAR     54  46  76 SW5       29.94R
MONTEVIDEO     CLEAR     55  52  88 W7        29.94R
PIPESTONE      CLEAR     59  54  82 CALM      29.95F
REDWOOD FALLS  CLEAR     57  53  86 W8        29.91S
TRACY          CLEAR     57  54  88 SW6       29.94S
WINDOM         CLEAR     54  52  94 CALM      29.94S
WORTHINGTON    CLEAR     54  48  82 W5        29.95S
$$

IAZ001>003-012>014-020>022-031-032-NEZ013-014-SDZ071-031100-
NORTHWEST IOWA

CITY           SKY/WX    TMP DP  RH WIND       PRES   REMARKS
CHEROKEE       CLEAR     57  57 100 CALM      29.96R
DENISON        CLOUDY    64  63  94 NE5       29.94S
ESTHERVILLE    CLEAR     53  52  96 NW6       29.94R
LE MARS        CLEAR     57  57 100 CALM      29.96S
ORANGE CITY    CLEAR     61  54  77 CALM      29.95S
SHELDON        CLEAR     55  54  94 S6        29.94R
SIOUX CITY     NOT AVBL
SPENCER        CLEAR     57  53  86 NW5       29.95R
STORM LAKE     CLEAR     61  55  82 CALM      29.97S
$$

ABBREVIATIONS USED IN REMARKS
   TC - TEMPERATURE IN CELSIUS
  WCI - WIND CHILL INDEX
   HX - HEAT INDEX
  VSB - VISIBILITY




USA.gov is the U.S. government's official web portal to all federal, state and local government web resources and services.